Tracking 29892 objects as of 21-Nov-2024
HD Live streaming from Space Station
objects crossing your sky now

COSMOS 1275 DEB

Track COSMOS 1275 DEB now!
10-day predictions


NORAD ID: 42170
Int'l Code: 1981-053SJ
Perigee: 937.9 km
Apogee: 1,235.5 km
Inclination: 82.8 °
Period: 106.8 minutes
Semi major axis: 7457 km
RCS: Unknown
Launch date: June 4, 1981
Source: Commonwealth of Independent States (former USSR) (CIS)
Launch site: PLESETSK MISSILE AND SPACE COMPLEX (PKMTR)

Note: This is SATELLITE DEBRIS
Your satellite tracking list
Your tracking list is empty




NASA's NSSDC Master Catalog

Two Line Element Set (TLE):
1 42170U 81053SJ  24320.30582198  .00001628  00000-0  23174-2 0  9994
2 42170  82.7639 336.4751 0199501  63.2984 298.8426 13.48020232507261
Source of the keplerian elements: AFSPC